This is the latest recevied weather packets stored in our database for station/object AG1T-20. If no packets are shown the sender has not sent any weather packets the latest 10 day(s).
| Time | Temp. | Humidity | Pressure | Rain* | Wind** | Luminosity | Snow |
|---|---|---|---|---|---|---|---|
| 1787689205 | 30° C | 30% | 1024.8 hPa | 0 mm | - | 694 W/m² | - |
| 1787688605 | 30° C | 32% | 1024.8 hPa | 0 mm | - | 715 W/m² | - |
| 1787688004 | 30.56° C | 35% | 1024.8 hPa | 0 mm | - | 732 W/m² | - |
| 1787687405 | 29.44° C | 32% | 1025.3 hPa | 0 mm | - | 744 W/m² | - |
| 1787686804 | 28.89° C | 36% | 1025.3 hPa | 0 mm | - | 765 W/m² | - |
| 1787686205 | 28.33° C | 36% | 1025.3 hPa | 0 mm | - | 779 W/m² | - |
| 1787685605 | 28.33° C | 36% | 1025.3 hPa | 0 mm | - | 802 W/m² | - |
| 1787685005 | 28.33° C | 36% | 1025.3 hPa | 0 mm | - | 788 W/m² | - |
| 1787684404 | 27.78° C | 39% | 1025.3 hPa | 0 mm | - | 825 W/m² | - |
| 1787683805 | 27.22° C | 39% | 1025.7 hPa | 0 mm | - | 834 W/m² | - |
| 1787683205 | 26.67° C | 41% | 1025.7 hPa | 0 mm | - | 842 W/m² | - |
| 1787682604 | 26.11° C | 43% | 1025.7 hPa | 0 mm | - | 851 W/m² | - |
| 1787682008 | 26.67° C | 45% | 1025.7 hPa | 0 mm | - | 809 W/m² | - |
| 1787681404 | 26.11° C | 43% | 1025.7 hPa | 0 mm | - | 785 W/m² | - |
| 1787680805 | 26.11° C | - | - | 0 mm | - | 100 W/m² | - |
| 1787680204 | 25° C | 44% | 1026.3 hPa | 0 mm | - | 933 W/m² | - |
| 1787679605 | 25.56° C | 43% | 1026.3 hPa | 0 mm | - | 871 W/m² | - |
| 1787679005 | 25° C | 44% | 1026.3 hPa | 0 mm | - | 871 W/m² | - |
| 1787678405 | 25° C | 46% | 1026.3 hPa | 0 mm | - | 857 W/m² | - |
| 1787677805 | 23.89° C | 48% | 1026.3 hPa | 0 mm | - | 842 W/m² | - |
| 1787677204 | 23.33° C | 49% | 1026.3 hPa | 0 mm | - | 835 W/m² | - |
| 1787676605 | 22.78° C | 51% | 1026.2 hPa | 0 mm | - | 816 W/m² | - |
| 1787676004 | 22.78° C | 51% | 1026.2 hPa | 0 mm | - | 805 W/m² | - |
| 1787675405 | 22.22° C | 52% | 1026.2 hPa | 0 mm | - | 795 W/m² | - |
| 1787674805 | 22.22° C | 53% | 1026.2 hPa | 0 mm | - | 780 W/m² | - |
* Rain latest hour (hover to see other rain measurements)
** Current wind speed in m/s (hover to see current wind gust speed)